WIF170 ENOV-ENSG

Flight info

Callsign WIF170
Flight time 0h 15m
Altitude 13000
Route EVNAN
Aircraft DH8B/M-SDFGR/S

Departure

Time 2026-05-01 14:57
Airport Ørsta-Volda Airport, Hovden (ENOV)

Arrival

Time 2026-05-01 15:12
Airport Sogndal Airport, Haukåsen (ENSG)
Time Latitude Longitude Altitude Speed Heading
2026-05-01 14:53 62.18103 6.07780 246 ft 0 kts 240°
2026-05-01 14:53 62.18092 6.07735 246 ft 13 kts 240°
2026-05-01 14:53 62.18093 6.07739 247 ft 0 kts 240°
2026-05-01 14:54 62.18103 6.07780 246 ft 0 kts 240°
2026-05-01 14:56 62.18061 6.07623 247 ft 58 kts 240°
2026-05-01 14:56 62.17711 6.06304 319 ft 131 kts 240°
2026-05-01 14:57 62.17216 6.04563 976 ft 144 kts 233°
2026-05-01 14:57 62.16494 6.00204 2253 ft 169 kts 258°
2026-05-01 14:57 62.16321 5.97695 3000 ft 169 kts 249°
2026-05-01 14:58 62.15705 5.95728 3748 ft 158 kts 211°
2026-05-01 14:58 62.14687 5.94894 4515 ft 157 kts 194°
2026-05-01 14:58 62.13579 5.94902 5275 ft 163 kts 175°
2026-05-01 14:58 62.12499 5.95892 6025 ft 177 kts 156°
2026-05-01 14:59 62.11554 5.97631 6760 ft 180 kts 155°
2026-05-01 14:59 62.10511 5.99179 7460 ft 183 kts 156°
2026-05-01 14:59 62.09487 6.00837 8172 ft 186 kts 155°
2026-05-01 14:59 62.08438 6.02557 8909 ft 192 kts 156°
2026-05-01 15:00 62.06293 6.06079 10375 ft 195 kts 155°
2026-05-01 15:00 62.05199 6.07859 11048 ft 198 kts 154°
2026-05-01 15:00 62.04113 6.09663 11748 ft 197 kts 158°
2026-05-01 15:01 62.02939 6.11440 12076 ft 222 kts 153°
2026-05-01 15:01 62.01636 6.13635 12099 ft 254 kts 151°
2026-05-01 15:01 62.00174 6.16048 12140 ft 273 kts 152°
2026-05-01 15:01 61.98641 6.18529 12210 ft 283 kts 152°
2026-05-01 15:02 61.97067 6.21145 12357 ft 289 kts 151°
2026-05-01 15:02 61.95995 6.22870 12372 ft 295 kts 152°
2026-05-01 15:02 61.93774 6.26364 12415 ft 302 kts 151°
2026-05-01 15:02 61.92120 6.29120 12429 ft 305 kts 150°
2026-05-01 15:03 61.90419 6.31838 12437 ft 306 kts 152°
2026-05-01 15:03 61.88696 6.34590 12434 ft 309 kts 150°
2026-05-01 15:03 61.87004 6.37352 12404 ft 311 kts 151°
2026-05-01 15:03 61.85263 6.40106 12373 ft 312 kts 152°
2026-05-01 15:04 61.83539 6.42870 12336 ft 314 kts 151°
2026-05-01 15:04 61.81936 6.45524 12248 ft 272 kts 152°
2026-05-01 15:04 61.80410 6.47885 12108 ft 271 kts 154°
2026-05-01 15:04 61.78895 6.50272 12065 ft 271 kts 151°
2026-05-01 15:05 61.77437 6.52703 12065 ft 268 kts 152°
2026-05-01 15:05 61.75940 6.55016 12070 ft 265 kts 154°
2026-05-01 15:05 61.74457 6.57373 12091 ft 266 kts 152°
2026-05-01 15:05 61.73005 6.59721 12085 ft 264 kts 153°
2026-05-01 15:06 61.71494 6.61822 12085 ft 253 kts 167°
2026-05-01 15:06 61.66188 6.61279 12103 ft 240 kts 181°
2026-05-01 15:06 61.59491 6.62032 12131 ft 245 kts 185°
2026-05-01 15:06 61.52624 6.62513 12118 ft 255 kts 186°
2026-05-01 15:07 61.45546 6.62994 12123 ft 255 kts 186°
2026-05-01 15:07 61.38477 6.63476 12116 ft 256 kts 188°
2026-05-01 15:07 61.34088 6.63834 12111 ft 241 kts 188°
2026-05-01 15:07 61.32566 6.63921 11678 ft 205 kts 189°
2026-05-01 15:08 61.31174 6.64008 10859 ft 198 kts 188°
2026-05-01 15:08 61.29820 6.64194 10061 ft 191 kts 186°
2026-05-01 15:08 61.25141 6.64716 6907 ft 176 kts 188°
2026-05-01 15:08 61.22635 6.65881 5970 ft 156 kts 167°
2026-05-01 15:09 61.21643 6.66811 5345 ft 166 kts 156°
2026-05-01 15:09 61.18943 6.75543 4146 ft 192 kts 120°
2026-05-01 15:09 61.17206 6.85739 4098 ft 183 kts 116°
2026-05-01 15:09 61.15443 6.93000 4106 ft 173 kts 131°
2026-05-01 15:10 61.14646 6.94745 4060 ft 162 kts 163°
2026-05-01 15:10 61.12325 6.96421 3518 ft 192 kts 143°
2026-05-01 15:10 61.11649 6.98858 3654 ft 206 kts 108°
2026-05-01 15:11 61.11660 7.01839 3510 ft 220 kts 73°
2026-05-01 15:11 61.13482 7.06977 3032 ft 199 kts 54°
2026-05-01 15:11 61.14247 7.09189 2744 ft 182 kts 55°
2026-05-01 15:12 61.14945 7.11362 2095 ft 182 kts 56°
2026-05-01 15:12 61.15688 7.13903 1642 ft 14 kts 338°
2026-05-01 15:12 61.15720 7.13791 1642 ft 0 kts 242°